Location: Vista Encantada
(35.1109°N, 106.5681°W)
Time: 08:39:38
(UTC+00:00)

CZ-4B R/B - Pass Details

Date: 29 October 2020
Orbit: 388 x 461 km, 97.6° (Epoch: 04 December)

Event Time Altitude Azimuth Distance (km) Brightness Sun altitude
Rises 12:03:54 0° 173° (S) 2,477 5.3 -17.2°
Reaches altitude 10° 12:05:57 10° 177° (S) 1,607 4.3 -16.7°
Maximum altitude 12:09:22 64° 259° (W) 516 1.4 -16.0°
Drops below altitude 10° 12:12:48 10° 341° (NNW) 1,606 3.9 -15.3°
Enters shadow 12:13:34 - 343° (NNW) 1,930 4.4 -15.2°
